Cancun, Mexico

9:26 PM on June 26, 2017 (GMT +0000)
Cancun International

Weather History for MMUN - September, 2013

Change the Weather History Date:

Wednesday, September 18, 2013

  Actual Average Record
Temperature  
Mean Temperature 79 °F -  
Max Temperature 80 °F 87 °F 102 °F (2002)
Min Temperature 78 °F 72 °F 69 °F (1997)
Cooling Degree Days 14    
Growing Degree Days 29 (Base 50)    
Moisture  
Dew Point 76 °F    
Average Humidity 86    
Maximum Humidity 94    
Minimum Humidity 79    
Precipitation  
Precipitation 0.00 in - - ()
Sea Level Pressure  
Sea Level Pressure 29.85 in    
Wind  
Wind Speed 13 mph ()    
Max Wind Speed 22 mph    
Max Gust Speed -    
Visibility 6.5 miles    
Events      
Averages and records for this station are not official NWS values.
T = Trace of Precipitation, MM = Missing Value Source: Averaged Metar Reports

Daily Weather History Graph

Daily Weather History Graph

Search for Another Location

Airport or City:

Trip Planner

Search our weather history database for the weather conditions in past years. The results will help you decide how hot, cold, wet, or windy it might be!

Date:

Astronomy

Sep. 18, 2013 Rise Set
Actual Time 6:35 AM CDT 6:47 PM CDT
Civil Twilight 6:13 AM CDT 7:09 PM CDT
Nautical Twilight 5:47 AM CDT 7:35 PM CDT
Astronomical Twilight 5:21 AM CDT 8:01 PM CDT
Moon 6:12 PM CDT (9/18) 5:39 AM CDT (9/18)
Length of Visible Light 12h 56m
Length of Day
12h 11m
Waxing Gibbous, 99% of the Moon is Illuminated
Sep 18
Waxing Gibbous
Sep 19
Full
Sep 26
Last Quarter
Oct 4
New
Oct 11
First Quarter

Hourly Weather History & Observations

Time (CDT) Temp. Heat Index Dew Point Humidity Pressure Visibility Wind Dir Wind Speed Gust Speed Precip Events Conditions
12:42 AM 80.6 °F 86.2 °F 75.2 °F 84% 29.83 in 7.0 mi East 15.0 mph - N/A   Overcast
1:43 AM 80.6 °F 87.1 °F 77.0 °F 89% 29.82 in 7.0 mi East 11.5 mph - N/A   Overcast
2:45 AM 78.8 °F - 77.0 °F 94% 29.80 in 7.0 mi East 16.1 mph - N/A   Overcast
3:42 AM 80.6 °F 86.2 °F 75.2 °F 84% 29.79 in 7.0 mi East 12.7 mph - N/A   Overcast
4:41 AM 80.6 °F 86.2 °F 75.2 °F 84% 29.80 in 7.0 mi ESE 13.8 mph - N/A   Overcast
5:42 AM 80.6 °F 86.2 °F 75.2 °F 84% 29.80 in 7.0 mi ESE 13.8 mph - N/A   Overcast
6:45 AM 80.6 °F 86.2 °F 75.2 °F 84% 29.82 in 7.0 mi ESE 16.1 mph - N/A   Overcast
7:46 AM 80.6 °F 86.2 °F 75.2 °F 84% 29.85 in 6.0 mi ESE 11.5 mph - N/A   Overcast
8:52 AM 80.6 °F 86.2 °F 75.2 °F 84% 29.88 in 6.0 mi ESE 15.0 mph - N/A   Overcast
9:49 AM 80.6 °F 86.2 °F 75.2 °F 84% 29.90 in 6.0 mi SE 19.6 mph - N/A   Overcast
10:40 AM 80.6 °F 86.2 °F 75.2 °F 84% 29.91 in 6.0 mi SE 21.9 mph - N/A   Overcast
11:41 AM 80.6 °F 86.2 °F 75.2 °F 84% 29.91 in 6.0 mi SE 19.6 mph - N/A   Overcast
12:45 PM 78.8 °F - 73.4 °F 83% 29.92 in 6.0 mi SE 11.5 mph - N/A   Overcast
1:46 PM 78.8 °F - 75.2 °F 89% 29.88 in 6.0 mi SE 13.8 mph - N/A   Overcast
2:40 PM 78.8 °F - 75.2 °F 89% 29.85 in 6.0 mi SE 16.1 mph - N/A   Overcast
3:46 PM 78.8 °F - 75.2 °F 89% 29.83 in 6.0 mi SE 15.0 mph - N/A   Overcast
4:43 PM 80.6 °F 86.2 °F 75.2 °F 84% 29.81 in 6.0 mi SE 17.3 mph - N/A   Overcast
5:40 PM 80.6 °F 86.2 °F 75.2 °F 84% 29.82 in 6.0 mi ESE 11.5 mph - N/A   Overcast
6:40 PM 80.6 °F 85.4 °F 73.4 °F 79% 29.83 in 6.0 mi ESE 12.7 mph - N/A   Overcast
7:41 PM 80.6 °F 86.2 °F 75.2 °F 84% 29.84 in 7.0 mi ESE 10.4 mph - N/A   Overcast
8:40 PM 80.6 °F 87.1 °F 77.0 °F 89% 29.85 in 7.0 mi ESE 9.2 mph - N/A   Overcast
9:48 PM 80.6 °F 87.1 °F 77.0 °F 89% 29.85 in 7.0 mi ESE 10.4 mph - N/A   Overcast
10:47 PM 80.6 °F 87.1 °F 77.0 °F 89% 29.90 in 7.0 mi East 13.8 mph - N/A   Overcast
11:46 PM 80.6 °F 87.1 °F 77.0 °F 89% 29.90 in 7.0 mi SE 10.4 mph - N/A   Overcast